SKW6077 KSGU-KLAX

Flight info

Callsign SKW6077
Flight time 0h 59m
Altitude 40000
Route PHYLI2 PHYLI MMM LAKRR Q73 HAKMN ANJLL4
Aircraft CRJ7/M-SDFGIRWY/S

Departure

Time 2026-04-25 02:13
Airport St George Regional Airport (KSGU)

Arrival

Time 2026-04-25 03:13
Airport Los Angeles International Airport (KLAX)
Time Latitude Longitude Altitude Speed Heading
2026-04-25 01:58 37.03080 -113.50986 2872 ft 0 kts 113°
2026-04-25 01:59 37.03080 -113.50985 2872 ft 0 kts 113°
2026-04-25 02:05 37.03083 -113.50993 2872 ft 2 kts 110°
2026-04-25 02:06 37.03088 -113.51016 2871 ft 3 kts 89°
2026-04-25 02:06 37.03085 -113.51040 2870 ft 3 kts 58°
2026-04-25 02:06 37.03073 -113.51055 2869 ft 3 kts 15°
2026-04-25 02:06 37.03065 -113.51058 2869 ft 1 kts
2026-04-25 02:08 37.03068 -113.51058 2869 ft 2 kts
2026-04-25 02:08 37.03096 -113.51058 2868 ft 8 kts 356°
2026-04-25 02:09 37.03160 -113.51055 2866 ft 10 kts 13°
2026-04-25 02:09 37.03230 -113.51024 2867 ft 11 kts 23°
2026-04-25 02:09 37.03300 -113.50987 2867 ft 11 kts 23°
2026-04-25 02:09 37.03390 -113.50939 2866 ft 19 kts 23°
2026-04-25 02:10 37.03517 -113.50872 2865 ft 20 kts 23°
2026-04-25 02:10 37.03648 -113.50803 2865 ft 20 kts 23°
2026-04-25 02:10 37.03774 -113.50736 2868 ft 19 kts 23°
2026-04-25 02:10 37.03896 -113.50672 2869 ft 20 kts 22°
2026-04-25 02:11 37.04031 -113.50601 2867 ft 22 kts 22°
2026-04-25 02:11 37.04184 -113.50521 2864 ft 26 kts 22°
2026-04-25 02:11 37.04357 -113.50430 2864 ft 28 kts 22°
2026-04-25 02:11 37.04540 -113.50333 2863 ft 27 kts 23°
2026-04-25 02:12 37.04684 -113.50257 2865 ft 16 kts 23°
2026-04-25 02:12 37.04752 -113.50255 2863 ft 10 kts 309°
2026-04-25 02:12 37.04785 -113.50342 2862 ft 12 kts 292°
2026-04-25 02:12 37.04795 -113.50407 2862 ft 6 kts 248°
2026-04-25 02:13 37.04722 -113.50459 2860 ft 35 kts 202°
2026-04-25 02:13 37.04235 -113.50717 2864 ft 114 kts 202°
2026-04-25 02:13 37.03310 -113.51205 2968 ft 165 kts 205°
2026-04-25 02:13 37.02262 -113.51781 3856 ft 164 kts 207°
2026-04-25 02:14 37.01610 -113.52255 4369 ft 163 kts 230°
2026-04-25 02:14 37.01244 -113.53496 5276 ft 153 kts 259°
2026-04-25 02:14 37.00885 -113.55203 6318 ft 153 kts 251°
2026-04-25 02:14 37.00503 -113.56446 7050 ft 154 kts 246°
2026-04-25 02:15 37.00045 -113.57656 7770 ft 154 kts 244°
2026-04-25 02:15 36.99526 -113.58908 8138 ft 178 kts 244°
2026-04-25 02:15 36.99093 -113.60521 8281 ft 211 kts 257°
2026-04-25 02:15 36.98834 -113.62422 8692 ft 232 kts 262°
2026-04-25 02:16 36.98700 -113.63778 9013 ft 243 kts 263°
2026-04-25 02:16 36.98494 -113.65942 9558 ft 257 kts 263°
2026-04-25 02:16 36.98256 -113.68214 10162 ft 268 kts 261°
2026-04-25 02:16 36.97983 -113.70555 10824 ft 275 kts 261°
2026-04-25 02:17 36.97688 -113.72946 11541 ft 281 kts 261°
2026-04-25 02:17 36.97395 -113.75379 12295 ft 284 kts 261°
2026-04-25 02:17 36.97095 -113.77831 13157 ft 285 kts 261°
2026-04-25 02:17 36.96798 -113.80275 14009 ft 283 kts 261°
2026-04-25 02:18 36.96504 -113.82695 14811 ft 280 kts 261°
2026-04-25 02:18 36.96213 -113.85087 15607 ft 277 kts 261°
2026-04-25 02:18 36.95904 -113.87473 16280 ft 279 kts 257°
2026-04-25 02:18 36.95173 -113.89731 16918 ft 282 kts 244°
2026-04-25 02:19 36.94198 -113.91870 17559 ft 285 kts 240°
2026-04-25 02:19 36.93142 -113.93977 18163 ft 287 kts 240°
2026-04-25 02:19 36.92071 -113.96095 18708 ft 289 kts 240°
2026-04-25 02:19 36.91007 -113.98228 19271 ft 290 kts 240°
2026-04-25 02:20 36.89976 -114.00362 19806 ft 291 kts 241°
2026-04-25 02:20 36.88933 -114.02537 20337 ft 293 kts 242°
2026-04-25 02:20 36.87886 -114.04732 20862 ft 294 kts 242°
2026-04-25 02:20 36.86835 -114.06930 21389 ft 296 kts 242°
2026-04-25 02:21 36.85776 -114.09146 21898 ft 298 kts 242°
2026-04-25 02:21 36.84713 -114.11375 22402 ft 299 kts 241°
2026-04-25 02:21 36.83641 -114.13610 22876 ft 301 kts 242°
2026-04-25 02:21 36.82565 -114.15859 23365 ft 302 kts 242°
2026-04-25 02:22 36.81485 -114.18114 23780 ft 303 kts 242°
2026-04-25 02:22 36.80403 -114.20369 24200 ft 303 kts 242°
2026-04-25 02:22 36.79318 -114.22624 24619 ft 303 kts 242°
2026-04-25 02:22 36.78169 -114.24830 24991 ft 307 kts 233°
2026-04-25 02:23 36.76417 -114.26427 25371 ft 321 kts 211°
2026-04-25 02:23 36.74293 -114.27388 25761 ft 328 kts 205°
2026-04-25 02:23 36.72028 -114.27959 26131 ft 339 kts 194°
2026-04-25 02:23 36.69640 -114.28048 26454 ft 347 kts 189°
2026-04-25 02:24 36.67213 -114.27983 26804 ft 349 kts 188°
2026-04-25 02:24 36.64778 -114.27894 27146 ft 350 kts 189°
2026-04-25 02:24 36.62339 -114.27855 27479 ft 350 kts 191°
2026-04-25 02:24 36.59903 -114.27877 27833 ft 350 kts 192°
2026-04-25 02:25 36.57459 -114.27922 28156 ft 352 kts 192°
2026-04-25 02:25 36.54999 -114.27957 28461 ft 354 kts 192°
2026-04-25 02:25 36.52533 -114.27986 28789 ft 355 kts 192°
2026-04-25 02:25 36.50058 -114.28016 29031 ft 358 kts 192°
2026-04-25 02:26 36.47567 -114.28047 29038 ft 367 kts 192°
2026-04-25 02:26 36.42343 -114.28113 29142 ft 383 kts 192°
2026-04-25 02:26 36.39657 -114.28145 29244 ft 389 kts 192°
2026-04-25 02:27 36.36929 -114.28180 29368 ft 395 kts 192°
2026-04-25 02:27 36.34126 -114.28214 29518 ft 400 kts 192°
2026-04-25 02:27 36.31368 -114.28246 29681 ft 404 kts 192°
2026-04-25 02:27 36.28548 -114.28280 29855 ft 406 kts 192°
2026-04-25 02:28 36.25715 -114.28317 30025 ft 409 kts 192°
2026-04-25 02:28 36.22858 -114.28353 30134 ft 413 kts 192°
2026-04-25 02:28 36.19968 -114.28388 30203 ft 418 kts 191°
2026-04-25 02:28 36.17050 -114.28424 30365 ft 420 kts 191°
2026-04-25 02:29 36.14132 -114.28495 30578 ft 415 kts 196°
2026-04-25 02:29 36.11422 -114.29318 30793 ft 390 kts 213°
2026-04-25 02:29 36.09036 -114.30840 31012 ft 383 kts 219°
2026-04-25 02:29 36.06767 -114.32542 31208 ft 381 kts 221°
2026-04-25 02:30 36.04573 -114.34365 31400 ft 378 kts 224°
2026-04-25 02:30 36.02606 -114.36456 31550 ft 370 kts 233°
2026-04-25 02:30 36.00894 -114.38821 31622 ft 370 kts 236°
2026-04-25 02:31 35.97568 -114.43748 31672 ft 378 kts 236°
2026-04-25 02:31 35.94058 -114.48664 31699 ft 384 kts 234°
2026-04-25 02:32 35.90530 -114.53533 31701 ft 382 kts 234°
2026-04-25 02:32 35.87003 -114.58392 31711 ft 378 kts 234°
2026-04-25 02:33 35.83504 -114.63205 31733 ft 376 kts 234°
2026-04-25 02:33 35.80019 -114.67995 31751 ft 377 kts 234°
2026-04-25 02:34 35.76498 -114.72821 31771 ft 380 kts 234°
2026-04-25 02:34 35.72958 -114.77658 31759 ft 381 kts 234°
2026-04-25 02:35 35.69407 -114.82517 31759 ft 382 kts 234°
2026-04-25 02:35 35.65854 -114.87383 31760 ft 382 kts 234°
2026-04-25 02:36 35.62299 -114.92259 31786 ft 384 kts 234°
2026-04-25 02:36 35.58734 -114.97157 31784 ft 385 kts 234°
2026-04-25 02:37 35.55168 -115.02065 31765 ft 385 kts 234°
2026-04-25 02:37 35.51601 -115.06983 31781 ft 386 kts 234°
2026-04-25 02:38 35.48049 -115.11878 31788 ft 386 kts 234°
2026-04-25 02:38 35.44472 -115.16808 31805 ft 387 kts 234°
2026-04-25 02:39 35.40891 -115.21755 31815 ft 389 kts 234°
2026-04-25 02:39 35.37300 -115.26722 31816 ft 390 kts 234°
2026-04-25 02:40 35.33500 -115.31462 31814 ft 394 kts 226°
2026-04-25 02:40 35.29345 -115.35757 31809 ft 387 kts 230°
2026-04-25 02:41 35.25675 -115.40506 31809 ft 382 kts 233°
2026-04-25 02:41 35.22086 -115.45277 31813 ft 380 kts 233°
2026-04-25 02:42 35.18469 -115.49993 31804 ft 380 kts 232°
2026-04-25 02:42 35.14804 -115.54703 31810 ft 385 kts 232°
2026-04-25 02:43 35.11089 -115.59473 31802 ft 389 kts 232°
2026-04-25 02:43 35.07345 -115.64285 31788 ft 392 kts 232°
2026-04-25 02:44 35.03592 -115.69084 31774 ft 392 kts 232°
2026-04-25 02:44 34.99824 -115.73883 31771 ft 391 kts 232°
2026-04-25 02:45 34.96063 -115.78679 31773 ft 391 kts 232°
2026-04-25 02:45 34.92305 -115.83464 31767 ft 391 kts 232°
2026-04-25 02:46 34.88546 -115.88241 31762 ft 390 kts 232°
2026-04-25 02:46 34.84792 -115.93007 31752 ft 390 kts 232°
2026-04-25 02:47 34.81035 -115.97765 31748 ft 389 kts 232°
2026-04-25 02:47 34.77290 -116.02502 31753 ft 389 kts 232°
2026-04-25 02:48 34.73535 -116.07234 31761 ft 388 kts 232°
2026-04-25 02:48 34.69797 -116.11987 31751 ft 389 kts 232°
2026-04-25 02:49 34.66065 -116.16734 31753 ft 388 kts 232°
2026-04-25 02:49 34.62334 -116.21477 31755 ft 388 kts 232°
2026-04-25 02:50 34.58604 -116.26208 31778 ft 388 kts 232°
2026-04-25 02:50 34.54874 -116.30927 31768 ft 387 kts 232°
2026-04-25 02:51 34.51149 -116.35643 31784 ft 387 kts 232°
2026-04-25 02:51 34.47447 -116.40317 31803 ft 387 kts 232°
2026-04-25 02:52 34.43733 -116.45047 31635 ft 387 kts 236°
2026-04-25 02:52 34.42173 -116.47730 31132 ft 391 kts 241°
2026-04-25 02:52 34.40707 -116.50497 30637 ft 388 kts 242°
2026-04-25 02:52 34.39327 -116.53273 30151 ft 382 kts 244°
2026-04-25 02:53 34.38106 -116.56109 29637 ft 378 kts 247°
2026-04-25 02:53 34.36967 -116.58958 29088 ft 375 kts 247°
2026-04-25 02:53 34.35829 -116.61786 28568 ft 373 kts 247°
2026-04-25 02:53 34.34702 -116.64599 28061 ft 371 kts 247°
2026-04-25 02:54 34.33586 -116.67390 27672 ft 365 kts 247°
2026-04-25 02:54 34.32485 -116.70159 27178 ft 365 kts 247°
2026-04-25 02:54 34.31381 -116.72916 26695 ft 364 kts 247°
2026-04-25 02:54 34.30270 -116.75668 26267 ft 363 kts 247°
2026-04-25 02:55 34.29169 -116.78414 25814 ft 363 kts 247°
2026-04-25 02:55 34.28066 -116.81149 25356 ft 361 kts 247°
2026-04-25 02:55 34.26968 -116.83870 24910 ft 360 kts 247°
2026-04-25 02:55 34.25878 -116.86581 24489 ft 358 kts 247°
2026-04-25 02:56 34.24783 -116.89291 24075 ft 357 kts 247°
2026-04-25 02:56 34.23694 -116.91988 23667 ft 357 kts 247°
2026-04-25 02:56 34.22606 -116.94682 23218 ft 356 kts 247°
2026-04-25 02:56 34.21524 -116.97358 22738 ft 354 kts 247°
2026-04-25 02:57 34.20554 -117.00071 22301 ft 350 kts 251°
2026-04-25 02:57 34.19769 -117.02844 21742 ft 347 kts 255°
2026-04-25 02:57 34.19064 -117.05614 21280 ft 343 kts 255°
2026-04-25 02:57 34.18378 -117.08355 20860 ft 339 kts 255°
2026-04-25 02:58 34.17685 -117.11066 20427 ft 337 kts 254°
2026-04-25 02:58 34.16965 -117.13755 20028 ft 335 kts 254°
2026-04-25 02:58 34.16247 -117.16421 19653 ft 333 kts 253°
2026-04-25 02:58 34.15511 -117.19071 19286 ft 332 kts 253°
2026-04-25 02:59 34.14786 -117.21710 18890 ft 331 kts 253°
2026-04-25 02:59 34.14063 -117.24340 18496 ft 329 kts 253°
2026-04-25 02:59 34.13342 -117.26960 18089 ft 328 kts 253°
2026-04-25 02:59 34.12623 -117.29568 17636 ft 327 kts 253°
2026-04-25 03:00 34.11905 -117.32176 17187 ft 327 kts 253°
2026-04-25 03:00 34.11201 -117.34740 16754 ft 326 kts 253°
2026-04-25 03:00 34.10493 -117.37333 16317 ft 325 kts 253°
2026-04-25 03:00 34.09791 -117.39924 15893 ft 325 kts 253°
2026-04-25 03:01 34.09119 -117.42525 15461 ft 324 kts 254°
2026-04-25 03:01 34.08464 -117.45116 15068 ft 323 kts 254°
2026-04-25 03:01 34.07816 -117.47694 14668 ft 318 kts 254°
2026-04-25 03:01 34.07165 -117.50215 14289 ft 312 kts 252°
2026-04-25 03:02 34.06400 -117.52640 13910 ft 307 kts 249°
2026-04-25 03:02 34.05548 -117.54988 13506 ft 303 kts 247°
2026-04-25 03:02 34.04691 -117.57293 13085 ft 300 kts 248°
2026-04-25 03:02 34.03857 -117.59580 12670 ft 296 kts 248°
2026-04-25 03:03 34.03042 -117.61845 12274 ft 293 kts 248°
2026-04-25 03:03 34.02496 -117.63362 12012 ft 291 kts 248°
2026-04-25 03:03 34.01698 -117.65585 11645 ft 297 kts 248°
2026-04-25 03:03 34.00881 -117.67913 11255 ft 306 kts 251°
2026-04-25 03:04 34.00378 -117.70405 10869 ft 305 kts 261°
2026-04-25 03:04 34.00111 -117.72933 10490 ft 303 kts 264°
2026-04-25 03:04 33.99902 -117.75453 10121 ft 301 kts 264°
2026-04-25 03:05 33.99522 -117.80428 9329 ft 289 kts 264°
2026-04-25 03:05 33.99308 -117.82790 8928 ft 282 kts 263°
2026-04-25 03:05 33.99084 -117.85129 8553 ft 279 kts 263°
2026-04-25 03:05 33.98860 -117.87433 8184 ft 276 kts 263°
2026-04-25 03:06 33.98641 -117.89718 7804 ft 273 kts 263°
2026-04-25 03:06 33.98418 -117.91978 7447 ft 270 kts 262°
2026-04-25 03:06 33.98197 -117.94209 7106 ft 267 kts 263°
2026-04-25 03:06 33.97978 -117.96419 6771 ft 264 kts 262°
2026-04-25 03:07 33.97762 -117.98604 6437 ft 264 kts 262°
2026-04-25 03:07 33.97541 -118.00824 6094 ft 269 kts 262°
2026-04-25 03:07 33.97321 -118.03056 5755 ft 268 kts 262°
2026-04-25 03:07 33.97103 -118.05283 5410 ft 267 kts 262°
2026-04-25 03:08 33.96884 -118.07498 5062 ft 265 kts 262°
2026-04-25 03:08 33.96658 -118.09698 4704 ft 264 kts 262°
2026-04-25 03:08 33.96440 -118.11883 4356 ft 262 kts 262°
2026-04-25 03:08 33.96224 -118.14055 4011 ft 260 kts 262°
2026-04-25 03:09 33.95999 -118.16208 3661 ft 258 kts 262°
2026-04-25 03:09 33.95765 -118.18340 3336 ft 255 kts 262°
2026-04-25 03:09 33.95539 -118.20454 2993 ft 253 kts 262°
2026-04-25 03:09 33.95324 -118.22538 2676 ft 248 kts 262°
2026-04-25 03:10 33.95123 -118.24555 2345 ft 236 kts 262°
2026-04-25 03:10 33.94936 -118.26450 2030 ft 217 kts 263°
2026-04-25 03:10 33.94765 -118.28167 1712 ft 195 kts 262°
2026-04-25 03:10 33.94614 -118.29676 1477 ft 168 kts 263°
2026-04-25 03:11 33.94479 -118.30977 1285 ft 146 kts 262°
2026-04-25 03:11 33.94368 -118.32086 1139 ft 126 kts 262°
2026-04-25 03:11 33.94261 -118.33158 1002 ft 133 kts 261°
2026-04-25 03:11 33.94149 -118.34320 883 ft 141 kts 262°
2026-04-25 03:12 33.94046 -118.35460 685 ft 133 kts 262°
2026-04-25 03:12 33.93905 -118.36633 462 ft 143 kts 262°
2026-04-25 03:12 33.93787 -118.37784 234 ft 138 kts 262°
2026-04-25 03:12 33.93675 -118.38906 108 ft 123 kts 262°
2026-04-25 03:13 33.93602 -118.39642 109 ft 45 kts 270°
2026-04-25 03:13 33.93627 -118.39861 108 ft 16 kts 288°
2026-04-25 03:13 33.93662 -118.39986 105 ft 17 kts 278°
2026-04-25 03:13 33.93659 -118.40128 105 ft 17 kts 265°
2026-04-25 03:14 33.93644 -118.40270 105 ft 17 kts 263°
2026-04-25 03:14 33.93629 -118.40417 105 ft 18 kts 263°
2026-04-25 03:14 33.93613 -118.40568 104 ft 18 kts 263°
2026-04-25 03:14 33.93598 -118.40724 104 ft 19 kts 263°
2026-04-25 03:15 33.93621 -118.40871 105 ft 16 kts 313°
2026-04-25 03:15 33.93723 -118.40904 105 ft 16 kts 353°
2026-04-25 03:15 33.93765 -118.40910 102 ft 4 kts 353°
2026-04-25 03:15 33.93798 -118.40915 99 ft 7 kts 353°
2026-04-25 03:16 33.93858 -118.40906 97 ft 10 kts 40°
2026-04-25 03:16 33.93879 -118.40817 95 ft 12 kts 84°
2026-04-25 03:16 33.93889 -118.40709 95 ft 14 kts 83°
2026-04-25 03:16 33.93901 -118.40589 97 ft 15 kts 83°
2026-04-25 03:17 33.93915 -118.40457 96 ft 17 kts 83°
2026-04-25 03:17 33.93930 -118.40311 96 ft 18 kts 83°
2026-04-25 03:17 33.93946 -118.40152 96 ft 20 kts 84°
2026-04-25 03:17 33.93964 -118.39982 98 ft 21 kts 83°
2026-04-25 03:18 33.93987 -118.39841 96 ft 13 kts 43°
2026-04-25 03:18 33.94074 -118.39824 94 ft 12 kts
2026-04-25 03:18 33.94150 -118.39834 95 ft 9 kts 354°
2026-04-25 03:18 33.94157 -118.39833 93 ft 3 kts 11°
2026-04-25 03:19 33.94162 -118.39830 93 ft 1 kts 43°
2026-04-25 03:19 33.94164 -118.39820 93 ft 3 kts 85°
2026-04-25 03:19 33.94167 -118.39789 93 ft 0 kts 83°
2026-04-25 03:19 33.94168 -118.39779 93 ft 2 kts 82°
2026-04-25 03:20 33.94169 -118.39773 93 ft 0 kts 83°